Weather History for KWRL - May, 2014

Change the Weather History Date:

Friday, May 9, 2014

  Actual Average Record
Temperature  
Mean Temperature 51 °F 53 °F  
Max Temperature 66 °F 68 °F 88 °F (1977)
Min Temperature 35 °F 39 °F 20 °F (2002)
Degree Days  
Heating Degree Days 14 12  
Month to date heating degree days 124 120  
Since 1 July heating degree days 8026 7587  
Cooling Degree Days 0 0  
Month to date cooling degree days 0 0  
Year to date cooling degree days 0 1  
Moisture  
Dew Point 36 °F    
Average Humidity 60    
Maximum Humidity 89    
Minimum Humidity 31    
Precipitation  
Precipitation 0.03 in 0.04 in 0.64 in (1992)
Month to date precipitation 0.51 0.38  
Year to date precipitation 1.58 2.12  
Sea Level Pressure  
Sea Level Pressure 29.69 in    
Wind  
Wind Speed 9 mph (South)    
Max Wind Speed 28 mph    
Max Gust Speed 35 mph    
Visibility 10 miles    
Events Rain , Thunderstorm    
T = Trace of Precipitation, MM = Missing Value Source: NWS Daily Summary

Daily Weather History Graph

Daily Weather History Graph

Search for Another Location

Airport or City:

Trip Planner

Search our weather history database for the weather conditions in past years. The results will help you decide how hot, cold, wet, or windy it might be!

Date:

Astronomy

May. 09, 2014 Rise Set
Actual Time 5:52 AM MDT 8:24 PM MDT
Civil Twilight 5:20 AM MDT 8:57 PM MDT
Nautical Twilight 4:39 AM MDT 9:38 PM MDT
Astronomical Twilight 3:53 AM MDT 10:24 PM MDT
Moon 3:14 PM MDT (5/9) 3:07 AM MDT (5/9)
Length of Visible Light 15h 37m
Length of Day
14h 31m
Waxing Gibbous, 74% of the Moon is Illuminated
May 9
Waxing Gibbous
May 14
Full
May 21
Last Quarter
May 28
New
Jun 5
First Quarter

Hourly Weather History & Observations

Time (MDT) Temp. Windchill Dew Point Humidity Pressure Visibility Wind Dir Wind Speed Gust Speed Precip Events Conditions
12:53 AM 39.0 °F - 33.1 °F 79% 29.85 in 10.0 mi Calm Calm - N/A   Clear
1:53 AM 39.0 °F 31.4 °F 34.0 °F 82% 29.81 in 10.0 mi SE 12.7 mph - N/A   Clear
3:53 AM 39.0 °F 34.8 °F 32.0 °F 76% 29.78 in 10.0 mi SE 5.8 mph - N/A   Clear
4:53 AM 37.0 °F - 32.0 °F 82% 29.76 in 10.0 mi Calm Calm - N/A   Clear
6:53 AM 39.0 °F 36.8 °F 34.0 °F 82% 29.75 in 10.0 mi SE 3.5 mph - N/A   Clear
7:53 AM 46.9 °F - 35.1 °F 63% 29.73 in 10.0 mi SE 8.1 mph - N/A   Overcast
8:53 AM 51.1 °F - 37.0 °F 59% 29.72 in 10.0 mi SSE 10.4 mph - N/A   Mostly Cloudy
9:53 AM 53.1 °F - 37.0 °F 55% 29.70 in 10.0 mi SE 8.1 mph - N/A   Mostly Cloudy
10:53 AM 57.9 °F - 37.9 °F 47% 29.66 in 10.0 mi SSE 12.7 mph - N/A   Scattered Clouds
11:53 AM 60.1 °F - 33.1 °F 36% 29.63 in 10.0 mi South 13.8 mph - N/A   Clear
12:53 PM 61.0 °F - 33.1 °F 35% 29.62 in 10.0 mi SW 15.0 mph - N/A   Partly Cloudy
1:53 PM 63.0 °F - 32.0 °F 31% 29.60 in 10.0 mi SSW 15.0 mph - N/A   Clear
2:53 PM 63.0 °F - 33.1 °F 33% 29.58 in 10.0 mi SSW 9.2 mph - N/A   Clear
3:53 PM 64.9 °F - 34.0 °F 32% 29.55 in 10.0 mi South 13.8 mph - N/A   Partly Cloudy
4:53 PM 62.1 °F - 34.0 °F 35% 29.58 in 10.0 mi WNW 3.5 mph - 0.00 in Thunderstorm Overcast
5:06 PM 54.0 °F - 37.0 °F 53% 29.64 in 7.0 mi WNW 27.6 mph 35.7 mph 0.01 in Rain , Thunderstorm Light Thunderstorms and Rain
5:37 PM 53.1 °F - 39.0 °F 59% 29.64 in 10.0 mi North 15.0 mph 24.2 mph 0.03 in Rain , Thunderstorm Light Rain
5:44 PM 53.1 °F - 39.9 °F 61% 29.64 in 10.0 mi North 13.8 mph 24.2 mph 0.03 in   Overcast
5:53 PM 53.1 °F - 39.9 °F 61% 29.63 in 10.0 mi North 12.7 mph - 0.03 in   Overcast
6:53 PM 53.1 °F - 39.9 °F 61% 29.66 in 10.0 mi NE 15.0 mph - N/A   Mostly Cloudy
7:53 PM 50.0 °F - 41.0 °F 71% 29.70 in 10.0 mi North 17.3 mph 25.3 mph N/A   Scattered Clouds
8:53 PM 46.9 °F - 39.9 °F 77% 29.73 in 10.0 mi North 9.2 mph - N/A   Clear
9:53 PM 46.0 °F 43.9 °F 37.9 °F 73% 29.76 in 10.0 mi North 4.6 mph - N/A   Overcast
10:53 PM 43.0 °F 38.8 °F 39.0 °F 86% 29.78 in 10.0 mi South 6.9 mph - N/A   Overcast
11:53 PM 43.0 °F 37.7 °F 39.0 °F 86% 29.78 in 10.0 mi SSW 9.2 mph - N/A   Mostly Cloudy